Total_Precipitation_Accumulation
1.77 1.76 1.38 0.87 0.69 0.62 0.64 0.62 0.54 0.54 0.52 0.60 0.60 0.57 0.53 0.53 0.61 0.66 0.65 0.71 0.85 1.03 1.25 1.42 1.76 2.02 2.26 2.57 2.91 3.18 3.33 3.48 3.65 3.83 3.97 3.92 3.88 3.72 3.48 3.26 3.13 3.04 2.75 2.73
1.72 1.33 0.76 0.55 0.62 0.68 0.73 0.75 0.57 0.54 0.55 0.68 0.70 0.65 0.58 0.61 0.69 0.67 0.67 0.69 0.75 0.90 1.13 1.34 1.60 1.84 2.08 2.35 2.56 3.00 3.25 3.30 3.33 3.35 3.57 3.81 4.04 4.07 3.94 3.72 3.45 3.31 3.10 2.90
1.33 0.87 0.64 0.69 0.79 0.86 0.78 0.70 0.60 0.63 0.67 0.75 0.80 0.83 0.70 0.71 0.64 0.65 0.69 0.74 0.77 0.81 0.98 1.18 1.48 1.70 1.91 2.17 2.35 2.60 2.93 3.16 3.25 3.33 3.66 3.92 4.14 4.06 3.92 3.75 3.52 3.35 3.25 3.05
1.15 0.72 0.76 0.86 0.85 0.84 0.81 0.50 0.55 0.70 0.94 1.05 0.92 1.12 0.88 0.76 0.62 0.62 0.69 0.73 0.79 0.83 0.95 1.09 1.26 1.54 1.78 1.94 2.16 2.39 2.66 2.98 3.23 3.39 3.51 3.57 3.60 3.59 3.46 3.46 3.53 3.43 3.22 3.12
1.21 0.81 0.87 0.97 0.75 0.75 0.72 0.47 0.56 0.78 1.03 1.12 0.81 0.93 0.85 0.61 0.62 0.63 0.66 0.68 0.72 0.80 0.89 0.95 1.07 1.31 1.55 1.76 1.99 2.26 2.46 2.71 3.04 3.31 3.30 3.38 3.32 3.24 3.34 3.34 3.36 3.41 3.27 3.13
0.91 0.80 0.97 0.93 0.65 0.71 0.75 0.81 0.92 1.05 1.50 1.60 0.72 0.75 0.84 0.73 0.76 0.70 0.65 0.66 0.68 0.75 0.84 0.90 0.97 1.16 1.39 1.62 1.78 2.07 2.35 2.51 2.75 3.11 3.13 3.04 2.92 2.83 3.03 3.17 3.18 3.28 3.21 3.02
1.32 1.07 0.93 0.89 0.94 0.99 1.09 1.58 2.11 2.14 2.09 1.30 0.50 0.57 0.82 0.70 0.70 0.77 0.70 0.64 0.62 0.66 0.75 0.79 0.82 0.98 1.26 1.49 1.66 1.84 2.15 2.34 2.48 2.77 2.95 2.95 2.82 2.70 2.69 2.82 3.01 3.14 3.15 2.83
1.43 1.32 0.94 0.97 1.12 1.26 1.16 1.42 1.71 1.54 1.07 0.64 0.46 0.62 0.72 0.57 0.54 0.57 0.58 0.55 0.55 0.60 0.67 0.74 0.78 0.88 1.09 1.34 1.54 1.68 1.87 2.13 2.26 2.42 2.63 2.84 2.75 2.65 2.55 2.51 2.71 2.90 3.00 2.82
1.13 1.09 0.68 0.71 0.75 0.88 1.14 1.18 1.04 1.38 0.96 0.69 0.64 0.65 0.57 0.40 0.41 0.45 0.49 0.47 0.51 0.59 0.63 0.73 0.77 0.85 0.96 1.14 1.37 1.54 1.65 1.89 2.03 2.17 2.39 2.61 2.57 2.43 2.32 2.26 2.33 2.50 2.66 2.66
1.09 1.16 0.71 0.68 0.90 0.94 0.99 1.00 1.25 1.89 1.59 0.97 0.64 0.56 0.64 0.50 0.48 0.48 0.50 0.53 0.56 0.58 0.58 0.64 0.75 0.83 0.92 1.06 1.21 1.41 1.58 1.77 1.89 1.98 2.16 2.30 2.34 2.27 2.15 2.08 2.07 2.14 2.22 2.28
0.96 1.28 0.95 0.90 1.15 0.97 0.96 1.16 1.40 1.53 1.33 1.21 0.81 0.71 0.67 0.58 0.56 0.54 0.55 0.58 0.59 0.59 0.61 0.63 0.70 0.81 0.92 1.05 1.19 1.33 1.49 1.66 1.80 1.87 1.91 1.97 2.05 2.11 2.02 1.99 1.89 1.86 1.94 2.04
0.86 1.34 1.08 0.75 0.67 0.59 0.78 0.95 1.20 1.68 1.29 0.97 0.89 0.76 0.52 0.47 0.51 0.53 0.53 0.58 0.57 0.54 0.58 0.63 0.68 0.79 0.90 1.01 1.16 1.32 1.42 1.59 1.68 1.72 1.77 1.77 1.84 1.92 1.91 1.77 1.70 1.67 1.65 1.77
1.17 1.70 1.51 1.06 0.97 0.89 0.93 0.79 0.91 1.35 1.65 1.25 1.05 0.78 0.46 0.37 0.41 0.46 0.51 0.56 0.54 0.52 0.52 0.55 0.62 0.73 0.86 0.97 1.07 1.21 1.28 1.42 1.58 1.60 1.67 1.69 1.74 1.84 1.90 1.77 1.62 1.57 1.53 1.53
1.53 1.74 1.40 1.21 1.01 0.99 0.96 0.72 0.81 1.56 1.98 1.16 0.73 0.61 0.48 0.45 0.47 0.50 0.54 0.58 0.57 0.53 0.53 0.54 0.61 0.69 0.77 0.88 0.99 1.08 1.13 1.24 1.35 1.45 1.55 1.62 1.64 1.70 1.83 1.82 1.62 1.55 1.51 1.48
1.34 1.55 0.94 0.66 0.56 0.70 0.77 0.69 0.77 1.19 1.18 1.10 0.68 0.57 0.64 0.63 0.65 0.63 0.60 0.56 0.52 0.50 0.50 0.53 0.61 0.69 0.70 0.75 0.86 0.95 0.97 1.05 1.15 1.22 1.34 1.51 1.58 1.62 1.74 1.81 1.77 1.68 1.62 1.54
1.01 1.32 0.96 0.70 0.48 0.57 0.65 0.62 0.67 0.77 0.76 0.77 0.64 0.68 0.61 0.59 0.55 0.56 0.57 0.54 0.56 0.52 0.51 0.50 0.56 0.65 0.67 0.71 0.80 0.89 0.92 0.95 1.03 1.11 1.18 1.29 1.36 1.48 1.63 1.74 1.72 1.70 1.71 1.67
0.84 1.11 1.34 0.97 0.54 0.74 0.95 0.81 0.77 0.76 0.67 0.67 0.78 0.72 0.54 0.53 0.55 0.60 0.58 0.53 0.55 0.52 0.47 0.46 0.51 0.60 0.66 0.68 0.71 0.79 0.88 0.91 0.98 1.08 1.13 1.17 1.22 1.25 1.39 1.55 1.70 1.77 1.77 1.76
0.71 0.99 1.51 1.16 0.85 1.14 0.92 0.64 0.62 0.66 0.67 0.64 0.65 0.57 0.54 0.57 0.58 0.60 0.59 0.54 0.48 0.46 0.42 0.41 0.46 0.52 0.61 0.65 0.63 0.65 0.69 0.78 0.87 0.96 0.99 1.04 1.15 1.22 1.28 1.46 1.66 1.82 1.91 1.92
0.44 0.96 1.60 1.39 1.01 0.68 0.45 0.38 0.53 0.65 0.69 0.59 0.53 0.45 0.42 0.43 0.46 0.53 0.54 0.52 0.49 0.47 0.45 0.42 0.44 0.47 0.52 0.58 0.61 0.61 0.64 0.72 0.79 0.89 0.93 0.96 1.07 1.25 1.39 1.54 1.69 1.82 1.97 2.04
0.43 0.85 1.60 1.46 1.23 0.74 0.45 0.25 0.29 0.52 0.79 0.49 0.43 0.46 0.43 0.42 0.56 0.55 0.49 0.48 0.44 0.40 0.41 0.42 0.41 0.41 0.44 0.51 0.56 0.60 0.66 0.73 0.83 0.95 1.04 1.09 1.18 1.37 1.50 1.62 1.69 1.71 1.78 1.85
0.65 1.03 1.35 1.19 1.18 0.68 0.40 0.22 0.23 0.72 0.90 0.45 0.40 0.46 0.49 0.60 0.69 0.57 0.47 0.45 0.42 0.39 0.40 0.42 0.45 0.49 0.53 0.58 0.64 0.73 0.76 0.90 1.01 1.06 1.15 1.24 1.27 1.32 1.36 1.41 1.41 1.36 1.32 1.35
0.60 0.82 0.86 0.91 1.21 0.86 0.40 0.32 0.64 0.86 0.55 0.45 0.41 0.42 0.48 0.51 0.49 0.46 0.43 0.41 0.41 0.39 0.39 0.43 0.51 0.61 0.66 0.73 0.85 0.91 0.93 0.99 1.05 1.12 1.15 1.19 1.22 1.25 1.23 1.21 1.16 1.08 1.04 1.06
0.57 0.76 0.86 0.89 0.95 0.78 0.58 0.63 0.69 0.60 0.56 0.49 0.49 0.46 0.47 0.48 0.48 0.45 0.44 0.41 0.38 0.37 0.39 0.43 0.49 0.54 0.60 0.67 0.78 0.87 0.86 0.86 0.92 1.00 1.04 1.06 1.04 1.05 1.08 1.05 1.04 1.02 0.97 0.97
0.52 0.45 0.62 0.70 0.64 0.55 0.51 0.45 0.44 0.46 0.53 0.51 0.50 0.48 0.45 0.48 0.45 0.43 0.40 0.40 0.40 0.40 0.41 0.42 0.43 0.45 0.48 0.51 0.59 0.68 0.67 0.69 0.74 0.82 0.87 0.91 0.93 0.95 0.96 0.96 0.96 0.99 1.01 0.98
0.53 0.50 0.61 0.65 0.52 0.43 0.40 0.39 0.42 0.39 0.36 0.36 0.36 0.39 0.43 0.43 0.43 0.43 0.42 0.40 0.41 0.44 0.44 0.45 0.47 0.50 0.52 0.52 0.54 0.58 0.61 0.66 0.71 0.73 0.75 0.78 0.82 0.87 0.91 0.93 0.96 1.01 1.03 1.11
0.53 0.64 0.79 0.74 0.52 0.57 0.51 0.39 0.36 0.35 0.33 0.31 0.30 0.32 0.33 0.36 0.41 0.41 0.43 0.44 0.43 0.44 0.42 0.41 0.43 0.48 0.52 0.54 0.55 0.56 0.59 0.65 0.73 0.75 0.74 0.75 0.80 0.84 0.86 0.89 0.95 1.03 1.04 1.11